Temp
3 3 3 3 2 2 2 2 2 2 2 2 2 2 2 2 2 3 3 3 3 3 3 3 3 2 2 2 1 1 1 2 2 1 1 1 1 1 1 1 1 1
3 3 3 2 2 2 2 2 2 2 2 2 2 2 2 2 2 3 3 3 3 3 2 2 2 2 2 1 1 1 1 1 1 1 1 1 1 1 1 1 1 1
3 3 2 2 2 2 2 2 2 2 2 2 2 2 2 2 2 3 3 3 3 2 2 2 2 2 1 1 1 1 1 1 1 1 1 1 1 1 1 1 1 1
2 2 2 2 2 2 2 2 2 2 2 2 2 2 2 2 2 3 3 2 2 2 2 2 2 2 1 1 1 1 1 1 1 1 1 1 1 1 1 1 1 1
2 2 2 2 2 2 2 2 2 1 1 1 1 1 1 2 2 2 2 2 2 2 2 2 2 2 2 1 1 1 1 1 1 1 1 1 1 1 1 1 1 1
2 2 2 2 2 2 2 2 2 1 1 1 1 1 1 2 2 2 2 2 2 2 2 2 2 2 2 1 1 1 1 1 1 1 1 1 1 1 1 1 1 1
2 2 2 2 2 2 2 2 1 1 1 1 1 1 1 2 2 2 2 2 2 2 2 2 2 2 2 1 1 1 2 2 1 1 1 1 1 1 1 1 1 1
2 2 2 2 2 2 2 1 1 1 1 1 1 1 1 1 1 2 2 2 2 2 2 2 2 2 2 1 1 2 2 2 1 2 1 1 1 1 1 1 1 0
2 2 2 2 2 2 2 2 2 2 1 1 1 1 1 1 1 1 2 2 2 2 2 2 2 2 1 1 1 1 1 1 1 1 1 1 1 1 1 1 1 1
2 2 2 2 2 2 2 2 2 2 1 1 1 1 1 1 1 1 1 1 1 2 1 2 1 1 1 1 1 1 1 1 1 1 1 1 1 1 1 1 1 1
2 2 2 2 2 2 2 2 2 2 2 2 1 1 1 1 1 1 1 1 1 1 1 1 1 1 1 1 1 1 1 1 1 1 1 1 1 1 1 1 1 1
2 2 2 2 2 2 2 2 2 2 2 2 2 1 1 1 1 1 1 1 1 1 1 1 1 1 1 1 1 1 1 0 1 1 1 1 1 1 1 1 1 1
2 2 2 2 2 2 2 2 2 2 2 2 2 2 1 1 1 1 1 1 1 1 1 0 0 0 0 0 0 1 1 1 1 1 1 1 1 1 1 1 1 1
2 2 2 2 2 2 2 2 2 2 2 2 2 2 2 1 1 1 1 1 1 1 1 0 0 0 0 0 0 0 0 1 1 1 1 1 1 1 1 0 0 0
2 2 2 2 2 2 2 2 2 2 2 2 2 2 2 2 2 1 1 1 1 1 1 0 0 0 0 0 0 0 0 0 0 0 0 0 0 0 0 0 0 0
2 2 2 2 2 2 2 2 2 2 1 1 1 1 2 2 1 1 1 1 1 1 1 1 0 0 0 -0 -0 -0 -0 0 0 0 0 0 0 0 0 0 0 0
1 1 1 1 1 1 1 1 1 1 1 1 1 1 1 1 1 1 0 0 0 0 0 0 0 0 0 0 -0 -0 -0 -0 -0 -0 -0 -0 -0 -0 -0 -0 -0 -0
1 1 1 1 1 1 1 1 1 1 1 1 1 1 1 1 0 0 -0 -0 -0 -0 -0 -0 -0 -0 -0 0 0 -0 -0 -0 -0 -0 -0 -1 -1 -0 -0 -0 -0 -0
1 1 1 1 1 1 1 1 1 1 1 1 1 1 1 1 1 1 0 -0 -1 -1 -1 -1 -1 -1 -0 -0 -0 -0 -0 -0 -0 -0 -1 -1 -1 -1 -1 -1 -1 -1
1 1 1 1 1 1 1 1 1 1 1 1 1 1 1 1 1 1 1 -0 -1 -1 -1 -1 -1 -1 -1 -1 -1 -1 -1 -1 -1 -1 -1 -1 -1 -1 -1 -1 -1 -1
1 1 1 1 1 1 1 1 1 1 1 1 1 1 1 1 1 1 1 -0 -1 -1 -1 -1 -1 -1 -1 -1 -1 -1 -1 -1 -1 -1 -1 -1 -1 -1 -1 -1 -1 -1
0 0 -0 -0 -0 -0 0 0 0 0 1 1 1 1 1 1 1 1 0 -0 -0 -1 -1 -1 -1 -1 -1 -1 -1 -1 -1 -1 -1 -1 -1 -1 -1 -1 -1 -1 -1 -1
-1 -1 -1 -1 -1 -1 -1 -1 -0 -0 -0 -0 -0 -0 -0 0 0 0 0 -0 -0 -1 -1 -1 -1 -1 -1 -1 -1 -1 -1 -1 -1 -1 -1 -1 -1 -1 -1 -1 -1 -1
-1 -1 -1 -1 -1 -1 -1 -1 -1 -1 -1 -1 -1 -1 -1 -1 -1 -0 -0 -0 -0 -1 -1 -0 -0 -0 -0 -1 -1 -1 -1 -1 -1 -1 -1 -1 -1 -1 -1 -1 -1 -1
-2 -2 -2 -2 -2 -2 -2 -2 -2 -2 -1 -1 -1 -1 -1 -1 -1 -1 -1 -1 -1 -1 -1 -1 -0 -0 -1 -1 -1 -1 -1 -1 -1 -1 -1 -1 -1 -1 -1 -1 -1 -1
-2 -2 -2 -2 -2 -2 -2 -2 -2 -2 -2 -2 -2 -2 -1 -1 -1 -1 -1 -1 -1 -1 -1 -1 -1 -1 -1 -2 -2 -2 -2 -2 -2 -2 -1 -1 -1 -2 -1 -1 -1 -1
Height
3143 3144 3145 3146 3146 3146 3146 3146 3145 3145 3145 3145 3145 3145 3145 3145 3146 3146 3147 3147 3148 3148 3148 3148 3149 3150 3151 3152 3153 3154 3155 3155 3155 3155 3156 3156 3157 3158 3159 3160 3161 3162
3142 3143 3144 3145 3145 3145 3145 3145 3144 3144 3144 3143 3143 3144 3144 3144 3145 3145 3146 3146 3147 3148 3148 3148 3149 3150 3151 3152 3153 3154 3154 3155 3155 3156 3156 3156 3157 3158 3159 3160 3161 3162
3142 3143 3144 3144 3145 3145 3145 3145 3144 3144 3143 3142 3142 3142 3143 3144 3144 3145 3145 3146 3146 3147 3148 3148 3149 3150 3151 3152 3153 3154 3154 3155 3155 3155 3156 3156 3157 3158 3159 3160 3161 3162
3141 3142 3143 3143 3144 3145 3145 3144 3144 3143 3142 3142 3142 3142 3142 3143 3144 3144 3145 3145 3146 3147 3147 3148 3149 3150 3151 3152 3153 3153 3154 3155 3155 3155 3156 3156 3157 3158 3159 3160 3161 3162
3140 3141 3142 3142 3143 3144 3144 3144 3143 3143 3142 3142 3141 3141 3142 3143 3143 3144 3144 3145 3146 3146 3147 3148 3149 3150 3151 3152 3152 3153 3154 3155 3155 3155 3156 3157 3157 3158 3159 3160 3160 3161
3139 3139 3140 3141 3142 3143 3143 3143 3143 3142 3142 3141 3141 3141 3142 3142 3143 3143 3144 3145 3145 3146 3147 3148 3149 3150 3151 3151 3152 3153 3154 3154 3155 3155 3156 3157 3157 3158 3159 3159 3160 3161
3138 3139 3139 3141 3142 3142 3142 3142 3142 3141 3141 3141 3140 3141 3141 3142 3142 3143 3144 3145 3145 3146 3147 3148 3149 3150 3151 3152 3152 3153 3154 3154 3155 3156 3156 3157 3158 3158 3159 3160 3161 3161
3137 3138 3139 3140 3141 3142 3142 3141 3141 3140 3140 3140 3140 3140 3141 3142 3142 3143 3144 3145 3146 3147 3148 3148 3149 3150 3151 3152 3153 3153 3154 3155 3156 3156 3157 3158 3158 3159 3160 3160 3161 3162
3136 3138 3139 3140 3140 3141 3141 3140 3140 3140 3140 3139 3139 3139 3140 3141 3142 3143 3144 3145 3146 3147 3148 3149 3150 3151 3151 3152 3153 3154 3155 3156 3156 3157 3158 3159 3159 3160 3160 3161 3161 3162
3135 3137 3138 3138 3139 3139 3140 3140 3139 3139 3139 3139 3139 3139 3140 3141 3142 3142 3144 3145 3146 3147 3148 3149 3150 3151 3152 3152 3153 3154 3155 3156 3157 3157 3158 3159 3160 3160 3161 3161 3162 3162
3134 3135 3136 3137 3137 3138 3139 3139 3139 3139 3139 3139 3139 3139 3140 3141 3141 3142 3143 3145 3146 3147 3148 3149 3150 3151 3152 3152 3153 3154 3155 3156 3157 3157 3158 3159 3160 3160 3161 3161 3161 3162
3132 3134 3135 3136 3136 3137 3138 3138 3138 3138 3138 3138 3139 3139 3139 3140 3141 3142 3143 3144 3145 3147 3148 3149 3150 3151 3152 3152 3153 3154 3155 3156 3156 3157 3158 3159 3159 3160 3160 3160 3161 3161
3130 3132 3134 3135 3136 3136 3137 3137 3137 3138 3138 3138 3138 3138 3139 3139 3140 3141 3142 3143 3144 3146 3147 3148 3149 3150 3151 3152 3152 3153 3154 3155 3155 3156 3157 3157 3158 3159 3159 3160 3160 3160
3129 3131 3132 3133 3134 3135 3136 3136 3136 3137 3137 3137 3138 3138 3138 3139 3140 3141 3142 3142 3143 3144 3145 3147 3148 3148 3149 3150 3151 3152 3153 3153 3154 3155 3155 3155 3156 3157 3158 3158 3158 3159
3127 3129 3131 3131 3133 3134 3134 3135 3135 3136 3136 3136 3137 3137 3138 3138 3139 3140 3141 3141 3142 3143 3144 3145 3146 3147 3147 3148 3149 3150 3150 3151 3152 3153 3153 3154 3154 3154 3155 3156 3156 3156
3126 3128 3129 3130 3131 3132 3133 3133 3134 3134 3135 3135 3135 3135 3136 3137 3138 3139 3140 3140 3141 3141 3142 3143 3144 3145 3145 3146 3147 3147 3148 3149 3150 3150 3151 3152 3152 3152 3153 3153 3154 3154
3125 3126 3127 3129 3130 3131 3131 3131 3132 3133 3133 3133 3133 3133 3134 3135 3136 3136 3137 3138 3139 3139 3140 3141 3141 3143 3143 3144 3144 3145 3146 3147 3147 3147 3148 3148 3149 3149 3150 3150 3150 3151
3123 3124 3126 3127 3128 3129 3129 3130 3130 3131 3131 3131 3131 3132 3132 3132 3133 3134 3135 3136 3136 3137 3137 3137 3138 3140 3141 3141 3141 3142 3143 3144 3144 3144 3144 3145 3145 3146 3146 3146 3146 3147
3121 3123 3124 3125 3126 3127 3127 3128 3128 3128 3129 3129 3130 3130 3130 3131 3131 3132 3133 3133 3134 3134 3135 3135 3135 3136 3137 3138 3138 3138 3139 3140 3141 3141 3141 3141 3142 3142 3142 3142 3142 3143
3119 3121 3122 3123 3123 3124 3125 3126 3126 3127 3128 3128 3128 3129 3129 3130 3130 3130 3131 3131 3131 3132 3132 3132 3132 3133 3133 3134 3134 3135 3135 3136 3137 3137 3137 3137 3138 3138 3137 3137 3137 3138
3119 3120 3121 3121 3122 3123 3123 3124 3125 3126 3126 3126 3127 3127 3128 3128 3129 3129 3129 3129 3129 3128 3128 3128 3129 3129 3130 3131 3132 3131 3131 3131 3131 3132 3132 3133 3132 3132 3131 3131 3132 3133
3117 3118 3119 3119 3120 3121 3122 3123 3123 3124 3124 3124 3125 3125 3126 3126 3126 3126 3126 3126 3126 3125 3125 3125 3125 3126 3126 3127 3128 3128 3128 3127 3127 3127 3127 3128 3127 3127 3127 3127 3128 3128
3114 3115 3115 3116 3117 3118 3119 3120 3121 3121 3121 3121 3121 3121 3122 3123 3123 3123 3123 3123 3123 3122 3122 3122 3122 3122 3123 3124 3124 3125 3124 3124 3123 3123 3123 3123 3123 3123 3123 3124 3124 3124
3112 3113 3114 3114 3115 3115 3116 3117 3117 3117 3118 3117 3117 3117 3118 3118 3119 3119 3120 3120 3120 3120 3119 3118 3118 3119 3119 3120 3120 3120 3120 3120 3119 3118 3118 3118 3118 3119 3119 3119 3119 3119
3111 3111 3112 3112 3112 3113 3113 3113 3114 3114 3114 3114 3113 3113 3113 3114 3114 3114 3115 3115 3116 3116 3115 3114 3114 3115 3115 3115 3116 3116 3115 3115 3114 3113 3113 3114 3114 3114 3114 3113 3113 3113
3109 3109 3109 3109 3109 3109 3110 3110 3110 3110 3110 3110 3109 3109 3109 3109 3109 3109 3109 3109 3110 3110 3110 3110 3109 3109 3109 3110 3110 3110 3110 3109 3108 3108 3109 3109 3109 3109 3108 3107 3107 3108
Wind_Speed
15 12 12 12 13 12 12 12 13 12 10 8 5 5 5 4 4 3 2 3 2 2 4 5 6 7 7 7 7 7 6 6 6 7 9 11 12 12 13 13 12 12
15 12 11 11 12 12 12 13 13 13 12 9 7 6 5 4 4 3 2 2 2 2 3 5 5 5 6 6 6 6 5 4 5 6 8 10 12 12 12 12 12 12
14 12 12 12 12 11 11 12 12 12 12 10 7 6 5 5 4 2 2 2 1 1 3 4 5 5 7 7 6 6 4 3 5 7 8 10 11 11 11 11 10 11
13 12 12 12 11 10 11 11 10 11 11 9 7 6 4 4 3 1 2 0 1 2 3 4 3 4 6 7 6 6 5 5 7 8 8 9 9 8 8 9 9 11
14 12 12 11 10 9 10 9 9 10 10 8 6 5 4 4 2 0 1 1 1 2 4 4 4 5 6 7 6 6 6 6 7 8 9 9 9 9 9 10 10 12
14 12 11 10 9 9 9 9 10 10 10 8 5 5 5 4 3 1 0 1 2 3 4 4 5 5 6 6 5 5 6 6 7 8 9 9 9 10 10 10 10 10
13 11 10 9 8 8 7 8 9 9 8 6 5 5 6 6 5 2 1 2 3 4 5 5 5 5 5 5 5 5 5 5 6 7 7 8 8 9 9 10 11 11
11 9 8 8 7 6 6 7 8 7 6 4 4 5 7 8 6 3 2 3 5 6 5 5 5 5 5 5 5 4 4 4 5 6 7 7 8 8 9 10 11 11
9 9 8 7 6 5 5 6 5 4 4 3 2 4 8 9 7 5 4 5 6 6 5 5 5 6 6 6 5 5 4 4 5 6 7 8 9 9 10 11 11 10
10 9 8 8 7 5 3 3 3 2 2 2 2 1 7 10 10 7 6 6 6 6 5 4 5 6 6 6 6 6 6 6 6 7 8 9 8 8 8 9 8 7
11 10 9 8 6 4 3 1 1 1 1 2 3 2 4 9 12 10 9 8 7 6 6 5 5 6 7 6 6 6 7 7 7 7 8 7 6 5 6 6 6 5
11 10 8 7 6 5 4 2 1 1 2 2 3 3 4 8 12 13 11 10 9 8 7 6 6 6 6 6 6 5 6 7 7 7 6 6 5 4 5 5 6 6
11 9 7 7 7 6 4 3 1 1 1 2 2 3 4 7 10 13 13 11 11 10 10 9 8 8 8 8 8 7 8 8 9 8 8 7 7 7 7 7 8 8
10 9 8 8 7 6 5 3 2 1 1 2 1 1 3 5 8 11 12 12 12 12 12 12 12 12 12 11 11 11 11 11 11 11 11 12 12 12 12 11 12 12
11 10 9 9 7 6 5 3 2 1 2 3 3 2 1 2 4 7 9 12 13 14 14 14 14 15 14 14 14 15 15 15 15 15 15 16 16 17 17 16 15 16
13 11 10 9 8 7 6 5 3 3 3 4 5 5 4 3 4 6 8 10 13 15 16 16 16 17 17 18 18 18 18 18 18 19 19 20 20 21 21 20 20 20
14 13 12 11 10 8 8 8 7 6 5 6 7 8 7 7 7 7 8 10 11 14 16 17 17 17 18 19 21 22 22 22 22 23 23 24 24 25 25 25 25 26
17 16 14 13 12 11 11 11 10 9 9 9 10 10 10 10 10 11 11 12 12 13 15 18 19 18 17 19 21 23 24 24 25 26 27 27 28 29 29 30 30 30
21 19 17 15 13 13 13 13 12 12 12 12 12 13 13 12 12 13 14 14 15 16 18 20 21 21 21 21 22 22 23 24 25 27 29 30 30 31 32 34 34 34
25 23 20 18 17 17 16 16 16 16 15 15 16 15 15 14 15 16 16 16 17 18 20 21 23 25 25 25 25 25 26 26 26 28 30 31 32 34 35 36 37 36
25 22 20 18 18 19 19 20 20 19 19 19 19 18 17 17 18 18 18 18 18 18 19 20 22 24 26 26 26 26 28 29 29 30 30 31 33 36 36 37 37 35
21 19 18 17 17 18 19 19 20 20 20 20 20 20 19 19 19 19 20 20 20 20 20 20 21 23 24 24 24 24 26 28 29 29 30 30 31 33 33 33 34 33
19 18 17 17 17 17 18 18 19 20 20 20 20 20 20 20 20 21 21 21 21 22 22 23 24 25 25 25 25 26 27 28 29 30 30 30 31 31 30 30 31 33
18 17 17 16 16 16 17 18 19 19 20 21 22 22 23 23 23 23 23 24 24 24 26 28 29 30 30 30 29 29 29 30 31 32 32 32 32 32 32 31 32 33
19 19 19 19 19 19 20 20 21 22 23 24 25 26 27 27 27 28 28 28 29 29 31 33 33 33 33 32 31 30 30 31 33 34 34 33 33 33 34 34 34 35
23 23 24 24 24 25 25 26 26 27 28 29 30 31 32 32 33 34 35 35 35 35 35 36 36 36 35 33 32 32 32 33 34 34 34 34 33 33 34 36 36 36
Wind_Direction
247 260 270 277 279 288 299 303 305 309 315 319 311 293 297 307 297 294 16 10 321 247 213 215 213 204 201 206 211 216 231 243 239 227 219 220 221 216 213 208 201 199
251 268 281 284 283 288 300 303 306 313 317 319 309 295 294 299 301 322 23 16 335 261 219 218 214 199 192 202 212 216 224 240 240 223 211 209 209 209 207 202 198 196
252 270 282 284 282 285 294 300 308 317 321 325 317 298 284 280 287 331 22 15 320 221 213 221 216 192 185 195 206 207 203 218 231 223 215 211 208 208 207 204 198 192
254 267 273 275 275 279 289 298 311 321 326 330 324 304 275 258 265 347 31 343 214 194 195 209 213 186 181 190 197 199 195 204 215 214 212 209 206 202 198 196 191 184
257 261 264 267 268 277 287 296 308 319 327 330 320 295 263 242 236 64 43 220 189 173 178 185 184 175 178 187 194 199 203 211 212 207 203 198 191 186 183 184 185 183
256 255 260 267 272 281 288 295 307 315 320 322 307 271 241 225 213 187 28 217 183 166 162 165 167 170 176 182 191 203 210 212 210 203 197 193 187 183 178 173 173 174
245 249 259 267 273 279 286 295 306 311 312 309 287 246 219 213 211 203 184 177 169 158 152 153 155 156 160 167 178 194 203 199 197 194 187 184 181 176 170 159 154 156
232 244 256 262 267 273 284 295 301 306 311 301 269 226 206 204 204 193 175 171 164 160 158 151 142 138 142 155 168 177 184 183 185 184 176 172 169 165 160 154 153 156
225 241 248 248 250 256 271 287 291 304 326 328 287 219 201 199 199 184 168 175 173 167 165 151 138 140 149 158 163 157 159 170 176 171 163 161 160 158 156 155 157 160
227 234 236 233 230 233 251 276 279 285 345 16 32 199 195 195 199 189 170 182 187 178 177 165 150 156 164 167 164 153 149 158 168 165 161 162 159 157 160 164 167 170
233 224 222 227 228 232 237 232 208 174 75 57 67 101 173 188 200 196 179 185 198 195 194 188 174 178 185 184 176 162 159 170 179 173 171 173 168 168 180 190 200 214
223 212 213 230 238 235 233 233 224 114 86 77 78 94 144 182 200 202 192 191 201 206 206 206 205 204 206 210 205 188 181 192 202 199 199 204 203 208 222 231 240 252
211 216 225 238 237 225 220 220 213 121 74 71 82 103 143 179 196 202 202 201 205 210 211 211 219 223 224 227 228 222 215 219 226 229 233 239 240 242 247 254 259 263
210 224 231 233 231 222 215 209 204 214 343 5 29 108 156 182 197 206 211 213 214 218 218 217 222 230 236 238 239 240 239 239 243 247 251 257 260 263 264 263 265 266
211 219 224 227 231 234 233 233 239 257 292 319 328 321 260 215 217 221 225 228 229 229 227 226 229 234 241 245 247 251 253 253 256 258 261 264 268 273 275 275 273 272
212 216 220 228 234 242 249 255 264 268 270 282 291 294 294 286 261 245 241 242 242 241 240 238 237 240 245 249 252 255 258 262 265 266 267 270 272 275 278 278 277 276
213 216 217 222 228 234 241 246 252 258 265 274 283 288 290 291 283 270 260 256 253 251 251 250 249 251 252 253 255 256 258 262 267 269 271 273 274 276 277 278 277 278
213 215 216 219 224 231 241 250 259 267 273 276 281 286 288 289 288 282 276 273 269 265 263 262 261 262 262 260 259 258 258 259 261 264 267 269 273 274 275 276 277 277
219 220 220 220 225 233 241 248 255 262 266 269 275 280 283 284 284 283 279 274 270 268 268 268 269 271 272 270 269 269 269 265 262 261 261 262 266 269 271 274 274 276
228 230 228 228 234 239 242 245 247 250 253 259 266 269 270 272 274 276 276 273 270 269 269 270 271 272 272 272 274 277 277 275 273 270 267 265 264 265 266 267 269 272
231 233 231 231 236 242 246 248 248 249 252 256 260 260 262 266 268 269 270 271 272 272 271 271 270 269 269 271 273 275 277 278 278 278 277 274 272 270 266 263 263 265
231 231 228 227 229 232 236 240 243 246 250 255 259 261 263 266 267 267 266 266 268 269 269 270 270 269 268 269 270 272 274 276 277 278 278 277 276 276 273 270 268 266
225 226 228 230 232 232 233 236 240 244 248 251 254 257 259 261 261 262 262 263 265 267 267 267 268 268 268 269 269 270 270 271 274 275 275 274 275 275 275 276 275 272
224 227 231 235 240 245 249 250 249 249 251 253 256 259 260 260 260 259 259 261 263 265 267 267 267 268 270 270 270 270 270 271 271 271 271 272 273 274 274 274 273 271
231 235 239 241 245 251 256 259 258 256 255 257 260 263 264 264 265 264 263 263 263 264 266 267 269 270 270 270 270 269 269 270 269 268 269 270 270 269 270 270 269 269
239 240 242 244 247 252 257 260 260 260 260 261 263 264 266 268 268 269 269 269 268 267 267 268 269 270 269 268 267 267 267 268 267 267 268 267 266 265 266 269 270 270